{"data":{"norad_id":61673,"intl_designator":"2024-193N","name":"STARLINK-32417","alt_names":[],"object_type":"PAYLOAD","status":"ACTIVE","operator":null,"country":"US","launch_date":"2024-10-26","launch_site_code":"AFETR","launch_vehicle":null,"mission":null,"orbit_class":"UNKNOWN","rcs_meters":null,"size_class":null,"mass_kg":null,"dimensions":null,"purposes":["comms"],"wikipedia_slug":null,"has_3d_model":false,"image_url":null,"decayed_at":null,"tle_current":{"epoch":"2026-09-21T16:27:44.516160Z","epoch_age_seconds":89531,"freshness":"FRESH","line1":"1 61673U 24193N   26264.68593190  .00000213  00000+0  18631-4 0  9991","line2":"2 61673  53.1595 259.2694 0001205  88.0417 272.0722 15.31704721106556","mean_motion":15.31704721,"eccentricity":0.0001205,"inclination_deg":53.1595,"raan_deg":259.2694,"arg_perigee_deg":88.0417,"mean_anomaly_deg":272.0722,"bstar":1.8631e-5,"rev_number":10655,"period_min":94.012898194886,"perigee_km":469.90063422433,"apogee_km":471.55121018858,"semimajor_km":6848.8629222065,"source":"CELESTRAK","updated_at":"2026-09-22T09:00:49.402274Z"}}}